Eastman, GA

6:51 PM EDT on May 26, 2018 (GMT -0400)
Heart Of Georgia Regional

Weather History for KEZM - July, 2013

Change the Weather History Date:

Monday, July 15, 2013

  Actual Average Record
Temperature  
Mean Temperature 82 °F -  
Max Temperature 90 °F 92 °F 98 °F (2016)
Min Temperature 75 °F 70 °F 72 °F (2014)
Cooling Degree Days 18    
Growing Degree Days 32 (Base 50)    
Moisture  
Dew Point 77 °F    
Average Humidity 91    
Maximum Humidity 100    
Minimum Humidity 64    
Precipitation  
Precipitation 0.00 in - - ()
Sea Level Pressure  
Sea Level Pressure 30.22 in    
Wind  
Wind Speed 6 mph (ENE)    
Max Wind Speed 10 mph    
Max Gust Speed 23 mph    
Visibility 9 miles    
Events Rain , Thunderstorm    
Averages and records for this station are not official NWS values.
T = Trace of Precipitation, MM = Missing Value Source: NWS Daily Summary

Daily Weather History Graph

Daily Weather History Graph

Search for Another Location

Airport or City:

Astronomy

Jul. 15, 2013 Rise Set
Actual Time 6:36 AM EDT 8:40 PM EDT
Civil Twilight 6:09 AM EDT 9:07 PM EDT
Nautical Twilight 5:35 AM EDT 9:41 PM EDT
Astronomical Twilight 4:59 AM EDT 10:17 PM EDT
Moon 1:26 PM EDT (7/15) 12:18 AM EDT (7/15)
Length of Visible Light 14h 58m
Length of Day
14h 03m
Waxing Crescent, 45% of the Moon is Illuminated
Jul 15
Waxing Crescent
Jul 15
First Quarter
Jul 22
Full
Jul 29
Last Quarter
Aug 6
New

Hourly Weather History & Observations

Time (EDT) Temp. Heat Index Dew Point Humidity Pressure Visibility Wind Dir Wind Speed Gust Speed Precip Events Conditions
12:15 AM 77.5 °F - 75.6 °F 94% 30.20 in 10.0 mi ESE 5.8 mph - N/A   Clear
12:35 AM 77.4 °F - 75.4 °F 94% 30.20 in 10.0 mi East 6.9 mph - N/A   Clear
12:55 AM 77.0 °F - 75.4 °F 95% 30.20 in 10.0 mi East 5.8 mph - N/A   Clear
1:15 AM 76.5 °F - 75.2 °F 96% 30.21 in 10.0 mi East 4.6 mph - N/A   Scattered Clouds
1:35 AM 76.3 °F - 75.2 °F 96% 30.20 in 10.0 mi East 4.6 mph - N/A   Scattered Clouds
1:55 AM 76.1 °F - 75.2 °F 97% 30.21 in 10.0 mi East 4.6 mph - N/A   Scattered Clouds
2:15 AM 75.9 °F - 75.4 °F 98% 30.21 in 10.0 mi East 3.5 mph - N/A   Scattered Clouds
2:35 AM 75.6 °F - 75.2 °F 99% 30.20 in 10.0 mi East 4.6 mph - N/A   Scattered Clouds
2:55 AM 75.6 °F - 75.2 °F 99% 30.21 in 10.0 mi East 4.6 mph - N/A   Mostly Cloudy
3:15 AM 75.4 °F - 75.2 °F 99% 30.20 in 10.0 mi East 4.6 mph - N/A   Overcast
3:35 AM 75.4 °F - 75.2 °F 99% 30.20 in 10.0 mi East 5.8 mph - N/A   Overcast
3:55 AM 75.6 °F - 75.2 °F 99% 30.20 in 10.0 mi East 6.9 mph - N/A   Overcast
4:15 AM 75.7 °F - 75.4 °F 99% 30.20 in 10.0 mi East 5.8 mph - N/A   Overcast
4:35 AM 76.1 °F - 75.6 °F 98% 30.20 in 7.0 mi East 6.9 mph - N/A   Overcast
4:55 AM 76.1 °F - 76.1 °F 100% 30.20 in 7.0 mi East 6.9 mph - N/A   Overcast
5:15 AM 76.3 °F - 76.1 °F 99% 30.21 in 5.0 mi East 8.1 mph - N/A   Overcast
5:35 AM 76.5 °F - 76.1 °F 99% 30.21 in 7.0 mi East 6.9 mph - N/A   Overcast
5:55 AM 76.6 °F - 76.3 °F 99% 30.22 in 7.0 mi East 4.6 mph - N/A   Overcast
6:15 AM 76.6 °F - 76.3 °F 99% 30.22 in 7.0 mi East 5.8 mph - N/A   Overcast
6:35 AM 76.6 °F - 76.5 °F 99% 30.22 in 7.0 mi ENE 6.9 mph - N/A   Overcast
6:55 AM 76.6 °F - 76.3 °F 99% 30.23 in 5.0 mi East 5.8 mph - N/A   Overcast
7:15 AM 77.0 °F - 76.5 °F 98% 30.23 in 5.0 mi East 4.6 mph - N/A   Overcast
7:35 AM 77.0 °F - 76.5 °F 98% 30.24 in 4.0 mi ENE 4.6 mph - N/A   Overcast
7:55 AM 77.0 °F - 76.6 °F 99% 30.24 in 5.0 mi ENE 5.8 mph - N/A   Overcast
8:15 AM 77.4 °F - 77.0 °F 99% 30.24 in 7.0 mi East 4.6 mph - N/A Rain Light Rain
8:35 AM 78.6 °F - 77.4 °F 96% 30.24 in 10.0 mi ENE 4.6 mph - N/A   Overcast
8:55 AM 79.3 °F - 77.4 °F 94% 30.25 in 10.0 mi ENE 6.9 mph - N/A   Overcast
9:15 AM 81.0 °F 88.6 °F 78.1 °F 91% 30.25 in 10.0 mi East 4.6 mph - N/A   Overcast
9:35 AM 80.8 °F 87.8 °F 77.5 °F 90% 30.25 in 10.0 mi East 8.1 mph - N/A   Overcast
9:55 AM 83.1 °F 93.6 °F 78.4 °F 86% 30.25 in 10.0 mi East 5.8 mph - N/A   Overcast
10:15 AM 83.5 °F 93.6 °F 77.9 °F 83% 30.25 in 10.0 mi ENE 5.8 mph - N/A   Mostly Cloudy
10:35 AM 83.8 °F 94.3 °F 77.9 °F 82% 30.25 in 10.0 mi East 9.2 mph - N/A   Overcast
10:55 AM 85.5 °F 97.2 °F 78.1 °F 78% 30.25 in 10.0 mi East 9.2 mph - N/A   Overcast
11:15 AM 85.6 °F 98.2 °F 78.4 °F 79% 30.25 in 10.0 mi ENE 6.9 mph - N/A   Mostly Cloudy
11:35 AM 85.6 °F 96.8 °F 77.4 °F 76% 30.25 in 10.0 mi ENE 10.4 mph - N/A   Mostly Cloudy
11:55 AM 87.4 °F 100.3 °F 77.7 °F 73% 30.25 in 10.0 mi East 6.9 mph - N/A   Mostly Cloudy
12:15 PM 85.3 °F 96.3 °F 77.4 °F 77% 30.25 in 10.0 mi ENE 5.8 mph - N/A   Mostly Cloudy
12:35 PM 88.3 °F 102.3 °F 78.4 °F 72% 30.24 in 10.0 mi ENE 10.4 mph - N/A   Mostly Cloudy
12:55 PM 89.2 °F 101.8 °F 77.2 °F 67% 30.24 in 10.0 mi ENE 10.4 mph - N/A   Mostly Cloudy
1:15 PM 89.8 °F 101.5 °F 76.1 °F 64% 30.24 in 10.0 mi ESE 10.4 mph - N/A   Scattered Clouds
1:35 PM 90.0 °F 103.2 °F 77.4 °F 66% 30.22 in 10.0 mi ENE 8.1 mph - N/A Thunderstorm Mostly Cloudy
1:55 PM 90.9 °F 105.7 °F 78.1 °F 66% 30.23 in 10.0 mi ENE 9.2 mph - N/A   Scattered Clouds
2:15 PM 90.0 °F 104.5 °F 78.3 °F 68% 30.22 in 10.0 mi East 5.8 mph - N/A Thunderstorm Unknown
2:35 PM 80.1 °F 85.5 °F 76.3 °F 88% 30.22 in 2.0 mi East 9.2 mph 23.0 mph N/A Rain , Thunderstorm Thunderstorms and Rain
2:55 PM 79.2 °F - 76.3 °F 91% 30.21 in 10.0 mi ENE 4.6 mph - N/A Thunderstorm Scattered Clouds
3:15 PM 79.9 °F - 77.4 °F 92% 30.22 in 10.0 mi East 3.5 mph - N/A Thunderstorm Clear
3:35 PM 80.6 °F 88.1 °F 78.6 °F 94% 30.22 in 10.0 mi NE 9.2 mph - N/A Thunderstorm Thunderstorm
3:55 PM 80.8 °F 88.0 °F 77.9 °F 91% 30.21 in 10.0 mi East 6.9 mph - N/A Thunderstorm Clear
4:15 PM 80.6 °F 87.5 °F 77.7 °F 91% 30.22 in 10.0 mi NE 6.9 mph - N/A   Clear
4:35 PM 79.9 °F - 77.2 °F 91% 30.20 in 10.0 mi NE 6.9 mph - N/A   Clear
4:55 PM 80.1 °F 86.0 °F 77.2 °F 91% 30.20 in 10.0 mi NE 5.8 mph - N/A   Clear
5:15 PM 79.5 °F - 77.4 °F 93% 30.21 in 10.0 mi ENE 3.5 mph - N/A   Scattered Clouds
5:35 PM 79.3 °F - 77.5 °F 94% 30.20 in 10.0 mi Calm Calm - N/A   Clear
5:55 PM 80.1 °F 86.1 °F 77.5 °F 92% 30.20 in 10.0 mi ENE 4.6 mph - N/A   Clear
6:15 PM 80.6 °F 87.3 °F 77.5 °F 90% 30.20 in 10.0 mi ENE 8.1 mph - N/A   Clear
6:35 PM 81.1 °F 88.4 °F 77.4 °F 88% 30.20 in 10.0 mi ENE 5.8 mph - N/A   Scattered Clouds
6:55 PM 81.1 °F 88.7 °F 77.7 °F 89% 30.20 in 10.0 mi NE 5.8 mph - N/A   Clear
7:15 PM 81.0 °F 88.4 °F 77.7 °F 90% 30.21 in 10.0 mi ENE 6.9 mph - N/A   Clear
7:35 PM 80.8 °F 87.8 °F 77.5 °F 90% 30.21 in 10.0 mi ENE 4.6 mph - N/A   Clear
7:55 PM 80.6 °F 87.3 °F 77.4 °F 90% 30.21 in 10.0 mi ENE 4.6 mph - N/A   Clear
8:15 PM 80.1 °F 86.0 °F 77.4 °F 91% 30.21 in 10.0 mi ENE 4.6 mph - N/A   Clear
8:35 PM 79.7 °F - 77.2 °F 92% 30.21 in 10.0 mi ENE 4.6 mph - N/A   Clear
8:55 PM 79.3 °F - 77.0 °F 93% 30.21 in 10.0 mi ENE 4.6 mph - N/A   Clear
9:15 PM 78.8 °F - 76.8 °F 94% 30.22 in 10.0 mi East 6.9 mph - N/A   Clear
9:35 PM 78.8 °F - 77.0 °F 94% 30.22 in 10.0 mi East 5.8 mph - N/A   Clear
9:55 PM 78.6 °F - 76.8 °F 94% 30.23 in 10.0 mi ENE 6.9 mph - N/A   Clear
10:15 PM 78.3 °F - 76.8 °F 95% 30.24 in 10.0 mi East 5.8 mph - N/A   Clear
10:35 PM 78.4 °F - 77.0 °F 95% 30.24 in 10.0 mi ENE 4.6 mph - N/A   Clear
10:55 PM 78.3 °F - 77.0 °F 96% 30.25 in 10.0 mi East 3.5 mph - N/A   Clear
11:15 PM 77.9 °F - 76.6 °F 96% 30.26 in 10.0 mi ENE 3.5 mph - N/A   Clear
11:35 PM 77.5 °F - 76.6 °F 97% 30.26 in 10.0 mi ENE 4.6 mph - N/A   Clear
11:55 PM 77.2 °F - 76.3 °F 97% 30.26 in 10.0 mi Calm Calm - N/A   Clear